Location: Unspecified
(0.0000°N, 0.0000°E)
Time: 13:23:48
(UTC+00:00)

S-56A Canister/Altair - Visible Passes

Search period start: 15 September 2024 00:00
Search period end: 25 September 2024 00:00
Orbit: 637 x 2487 km, 38.9° (Epoch: 15 September)

Date Brightness Start Highest point End Pass type
(mag) Time Alt. Az. Time Alt. Az. Time Alt. Az.
15 Sep 10.0 02:37:46 69° ESE 02:37:46 69° ESE 02:50:13 10° SE visible
15 Sep 10.4 04:35:10 25° W 04:42:15 37° SW 04:54:30 10° SSE visible
16 Sep 10.5 02:06:26 45° ESE 02:06:26 45° ESE 02:15:28 10° SE visible
16 Sep 10.2 04:03:49 38° WSW 04:07:21 42° SW 04:20:29 10° SSE visible
17 Sep 11.1 01:34:57 28° ESE 01:34:57 28° ESE 01:40:32 10° ESE visible
17 Sep 10.1 03:32:19 48° SW 03:32:26 48° SW 03:46:18 10° SSE visible
17 Sep 11.2 05:33:26 10° WSW 05:40:38 15° SSW 05:47:24 10° S visible
18 Sep 11.5 01:03:19 16° ESE 01:03:19 16° ESE 01:05:26 10° ESE visible
18 Sep 10.2 03:00:39 49° S 03:00:39 49° S 03:11:57 10° SSE visible
18 Sep 11.1 04:58:01 12° WSW 05:05:35 18° SSW 05:14:08 10° S visible
19 Sep 10.6 02:28:53 40° SSE 02:28:53 40° SSE 02:37:29 10° SE visible
19 Sep 10.9 04:26:14 19° SW 04:30:33 21° SW 04:40:29 10° S visible
20 Sep 11.0 01:56:59 29° SE 01:56:59 29° SE 02:02:51 10° SE visible
20 Sep 10.8 03:54:19 25° SW 03:55:30 25° SW 04:06:35 10° SSE visible
21 Sep 11.4 01:24:58 19° SE 01:24:58 19° SE 01:28:06 10° SE visible
21 Sep 10.8 03:22:17 28° SSW 03:22:17 28° SSW 03:32:29 10° SSE visible
22 Sep 11.7 00:52:51 11° SE 00:52:51 11° SE 00:53:13 10° SE visible
22 Sep 10.9 02:50:11 28° S 02:50:11 28° S 02:58:13 10° SSE visible
23 Sep 11.1 02:17:58 24° S 02:17:58 24° S 02:23:49 10° SSE visible
23 Sep 11.3 04:15:20 10° SW 04:19:58 12° SSW 04:24:34 10° S visible
24 Sep 11.3 01:45:41 19° SSE 01:45:41 19° SSE 01:49:16 10° SSE visible
24 Sep 11.3 03:43:00 14° SSW 03:44:41 14° SSW 03:51:21 10° S visible
